FENGYUN 1C DEB, 31462

Orbit data source: Space-Track

FENGYUN 1C DEB, 31462 is space debris in SSO originally from a launch on Mon, 10 May 1999 UTC launched from the Taiyaun Space Center, China (TSC). Fengyun 1C debris stems from the Chinese weather satellite Fengyun-1C, which was intentionally destroyed by a Chinese anti-satellite missile in 2007. This event dramatically increased the amount of space debris, with thousands of trackable fragments posing hazards to satellites and human spaceflight. The Fengyun 1C debris cloud has become a focal point in discussions about space sustainability and the need for international regulations to prevent the creation of new debris.

Loading next visibility...
Identifier
31462, 1999-025BVA
Orbit
SSO
Country
Flag of CNCN / PRC
Related business
Manufacturer
Unknown
Mission
Spacecraft
Bus & Motor
Unknown
Mass
Unknown
Launch date (UTC)
1999-05-10 (27 years ago)
Launch vehicle
Unknown
Launch site
Taiyaun Space Center, China (TSC)
Object type
Payload
Rocket body
Debris
Shape & HBR
Unknown shape, 0.1 m
Radar Cross Section
Small (<0.1 m²)

Expand to show TLE details & history
Last TLE update: 4 days ago

TLE from 4 days ago
0 FENGYUN 1C DEB
1 31462U 99025BVA 26204.52399571  .00000369  00000-0  21873-3 0  9998
2 31462  98.6769 221.3114 0030930 291.6923 221.0205 14.13268530990029
Epoch: 2026-07-23T12:34Z
TLE epoch observation values (Epoch: 2026-07-23T12:34:33.229Z)
Latitude
27.21744°
Longitude
-84.11283°
Altitude
868.422 km
Speed
7.412 km/s
True Right ascension
03h 03m 09s
True Declination
27° 04' 48"
Sunlit
Object was in daylight at epoch
Visualization orbit readout
Latitude
Unknown
Longitude
Unknown
Altitude
Unknown
Speed
Unknown
Apparent Right ascension
Unknown
Apparent Declination
Unknown
Sunlit
N/A
Visualization observer readout
Local Sidereal Time
05:37:27
Azimuth
Unknown
Elevation
Unknown
Doppler factor
Unknown
Orbital elements
Apogee altitude
867.717 km
Perigee altitude
823.032 km
Semi-major axis
7,223.511 km
Eccentricity
0.00309
Inclination
98.6769°
RAAN
221.3114°
Arg. of periapsis
291.6923°
True anomaly
220.78855°
Mean anomaly
221.0205°
Eccentric anomaly
220.90446°
Mean motion
3.53525 °/min
Orbital period
101.83 mins
BSTAR
0.00021873
Loading maneuver chart data...
Computing Atmospheric mass density...

Documentation

Showing up to 5 results
|